This is the latest recevied weather packets stored in our database for station/object LU8FCJ-5. If no packets are shown the sender has not sent any weather packets the latest 10 day(s).
| Time | Temp. | Humidity | Pressure | Rain* | Wind** | Luminosity | Snow |
|---|---|---|---|---|---|---|---|
| 1777763937 | 6.11° C | 63% | 1027 hPa | 0 mm | - | 118 W/m² | - |
| 1777763626 | 6.11° C | 64% | 1027.4 hPa | 0 mm | - | 118 W/m² | - |
| 1777763316 | 5.56° C | 64% | 1027.3 hPa | 0 mm | - | 118 W/m² | - |
| 1777763006 | 5° C | 65% | 1027.1 hPa | 0 mm | - | 118 W/m² | - |
| 1777762695 | 5° C | 64% | 1027.2 hPa | 0 mm | - | 154 W/m² | - |
| 1777762385 | 5.56° C | 62% | 1027.3 hPa | 0 mm | - | 154 W/m² | - |
| 1777762076 | 6.11° C | 61% | 1027.1 hPa | 0 mm | - | 154 W/m² | - |
| 1777761766 | 6.11° C | 61% | 1027.1 hPa | 0 mm | - | 154 W/m² | - |
| 1777761455 | 6.11° C | 60% | 1027.1 hPa | 0 mm | - | 154 W/m² | - |
| 1777761145 | 6.11° C | 61% | 1027.2 hPa | 0 mm | - | 154 W/m² | - |
| 1777760834 | 6.67° C | 59% | 1027.1 hPa | 0 mm | - | 154 W/m² | - |
| 1777760526 | 7.22° C | 57% | 1027.3 hPa | 0 mm | - | 154 W/m² | - |
| 1777760215 | 7.22° C | 57% | 1027.3 hPa | 0 mm | - | 154 W/m² | - |
| 1777759905 | 7.78° C | 56% | 1026.9 hPa | 0 mm | - | 154 W/m² | - |
| 1777759594 | 7.22° C | 57% | 1026.9 hPa | 0 mm | - | 154 W/m² | - |
| 1777759285 | 7.22° C | 55% | 1027.1 hPa | 0 mm | - | 154 W/m² | - |
| 1777758976 | 7.22° C | 55% | 1026.9 hPa | 0 mm | - | 154 W/m² | - |
| 1777758664 | 7.22° C | 55% | 1026.8 hPa | 0 mm | - | 154 W/m² | - |
| 1777758354 | 8.89° C | 51% | 1026.9 hPa | 0 mm | - | 154 W/m² | - |
| 1777758043 | 9.44° C | 49% | 1026.9 hPa | 0 mm | - | 154 W/m² | - |
| 1777757734 | 9.44° C | 49% | 1026.9 hPa | 0 mm | - | 154 W/m² | - |
| 1777757424 | 10° C | 49% | 1026.9 hPa | 0 mm | - | 154 W/m² | - |
| 1777757113 | 10.56° C | 47% | 1026.9 hPa | 0 mm | - | 154 W/m² | - |
| 1777756803 | 10.56° C | 45% | 1027 hPa | 0 mm | - | 154 W/m² | - |
| 1777756495 | 11.11° C | 43% | 1026.9 hPa | 0 mm | - | 154 W/m² | - |
* Rain latest hour (hover to see other rain measurements)
** Current wind speed in m/s (hover to see current wind gust speed)